Regional Weather Roundup
Issued by NWS

Home | Current Version | Previous Version | Graphics & Text | Print | Product List | Glossary On
Versions: 1 2 3 4 5 6 7 8 9 10 11 12 13 14 15 16 17 18 19 20 21 22 23 24 25 26 27 28 29 30 31 32 33 34 35 36 37 38 39 40 41 42 43 44 45 46 47 48 49 50
000
ASUS45 KCYS 261510
RWRWY

WYOMING REGIONAL WEATHER ROUNDUP
NATIONAL WEATHER SERVICE CHEYENNE WY
900 AM MDT TUE JUL 26 2016

NOTE:  "FAIR" INDICATES FEW OR NO CLOUDS BELOW 12,000 FEET
WITH NO SIGNIFICANT WEATHER AND/OR OBSTRUCTIONS TO VISIBILITY.

WYZ001-261600-
YELLOWSTONE NATIONAL PARK

CITY           SKY/WX    TMP DP  RH WIND       PRES   REMARKS
LK YELLOWSTONE   N/A     55  45  68 E3        30.40R
W YELLOWSTONE  NOT AVBL

$$
WYZ002>013-054>058-071-098>099-261600-
NORTHERN WYOMING

CITY           SKY/WX    TMP DP  RH WIND       PRES   REMARKS
JACKSON        SUNNY     59  30  33 CALM      30.30S
CODY           FAIR      73  41  31 SE6       30.17S
GREYBULL       FAIR      75  44  33 E7        30.09S
WORLAND        FAIR      75  44  33 S6        30.12S
SHERIDAN       FAIR      75  50  41 S7        30.13R
BUFFALO        FAIR      74  47  38 NW10      30.19S
GILLETTE       FAIR      71  56  58 N7        30.11S
HULETT         FAIR      68  59  73 NE7       30.11F
NEWCASTLE      FAIR      77  54  44 S7        30.07S

$$
WYZ014>020-022>026-101>103-261600-
CENTRAL WYOMING

CITY           SKY/WX    TMP DP  RH WIND       PRES   REMARKS
BIG PINEY      FAIR      64  29  26 VRB3      30.32R
PINEDALE       FAIR      61  32  33 NW6       30.33S
DUBOIS           N/A     59  30  33 CALM      30.30S HAZE
LANDER         FAIR      73  44  35 E6        30.20R
RIVERTON       FAIR      71  42  35 SE8       30.22R
CASPER         FAIR      72  48  42 N8        30.21R
DOUGLAS          N/A    N/A N/A N/A MISG      30.15R

$$
WYZ021-027>030-104>119-261600-
SOUTHERN WYOMING

CITY           SKY/WX    TMP DP  RH WIND       PRES   REMARKS
EVANSTON       FAIR      67  36  31 S5        30.32S
KEMMERER         N/A     68  32  26 N8        30.33S
FORT BRIDGER   FAIR      69  35  28 W5        30.35R
ROCK SPRINGS   FAIR      71  34  25 CALM      30.28S
DIXON          FAIR      69  44  39 SE6       30.32S
RAWLINS        FAIR      75  34  22 S5        30.29S
SARATOGA       FAIR      73  36  25 SE9       30.32S
LARAMIE        FAIR      73  38  27 S6        30.31S
CHEYENNE       FAIR      79  42  26 SW7       30.20S
TORRINGTON     FAIR      69  60  73 CALM      30.07R
PINE BLUFFS    FAIR      70  54  56 S6        30.15S

$$



USA.gov is the U.S. government's official web portal to all federal, state and local government web resources and services.